Regional Weather Roundup
Issued by NWS

Home | Current Version | Previous Version | Graphics & Text | Print | Product List | Glossary On
Versions: 1 2 3 4 5 6 7 8 9 10 11 12 13 14 15 16 17 18 19 20 21 22 23 24 25 26 27 28 29 30 31 32 33 34 35 36 37 38 39 40 41 42 43 44 45 46 47 48 49 50
000
ASUS43 KIND 290209
RWRIN

WEATHER ROUNDUP FOR INDIANA
NATIONAL WEATHER SERVICE INDIANAPOLIS IN
1000 PM EDT TUE JUL 28 2015

NOTE: "FAIR" INDICATES FEW OR NO CLOUDS BELOW 12,000 FEET WITH NO
SIGNIFICANT WEATHER AND/OR OBSTRUCTIONS TO VISIBILITY.

* - STATION DOES NOT REPORT WEATHER SUCH AS PRECIPITATION OR FOG.

+ - STATION NOT QUALITY CONTROLLED BY THE NATIONAL WEATHER SERVICE.
    USE DATA WITH CAUTION...ESPECIALLY DEWPOINT AND RELATIVE
    HUMIDITY OBSERVATIONS.

INZ001>003-010>013-019-020-290300-
NORTHWEST INDIANA

CITY           SKY/WX    TMP DP  RH WIND       PRES   REMARKS
GARY /AIRPORT/ PTCLDY    77  75  94 CALM      29.94R
KNOX *+        CLEAR     77  73  88 CALM      29.95R
LA PORTE +     CLEAR     78  78 100 CALM      29.97R
MICHIGAN CITY+ PTCLDY    77  70  78 CALM      29.96R
MONTICELLO +   CLEAR     79  77  94 CALM      29.94R
RENSSELAER +   PTCLDY    77  77 100 CALM      29.96R
VALPARAISO     PTCLDY    82  72  71 SE3       29.96R

$$

LMZ046-743>745-290300-
SOUTHERN LAKE MICHIGAN

STATION/POSITION TIME  TEMP    WIND        PRES    WAVE
                       AIR SEA DIR/SP/G            HT
                 (UTC) (F)     (DEG/KT/KT) (MB)    (FT)
BURNS HARBOR     0100   85     190/  5/  8 1013.5S
MICHIGAN CITY    0100   85     110/  5/  7   N/A
5NW MICH CITY    0200   80 76  160/  4/  6   N/A     0

$$

INZ004-005-014>016-021>024-290300-
NORTH CENTRAL INDIANA

CITY           SKY/WX    TMP DP  RH WIND       PRES   REMARKS
GOSHEN         LGT RAIN  76  71  85 CALM      29.97R
LOGANSPORT +   CLEAR     77  72  83 E3        29.96R
PERU/GRISSOM   CLEAR     79  74  84 SE5       29.95R
ROCHESTER +    CLEAR     81  75  83 CALM      29.97R
SOUTH BEND     PTCLDY    83  70  64 SE5       29.97R
WARSAW +       CLEAR     77  72  83 CALM      29.97R

$$

INZ006>009-017-018-025>027-290300-
NORTHEAST INDIANA

CITY           SKY/WX    TMP DP  RH WIND       PRES   REMARKS
ANGOLA *+      CLEAR     73  66  78 CALM      29.99R
AUBURN +       CLEAR     75  68  78 CALM      29.99R
FORT WAYNE     PTCLDY    79  73  82 CALM      29.98R
HUNTINGTON +   PTCLDY    78  73  85 CALM      29.97R

$$

INZ028-029-035-036-043>045-051>053-290300-
WEST CENTRAL INDIANA

CITY           SKY/WX    TMP DP  RH WIND       PRES   REMARKS
CRAWFORDSVL +  PTCLDY    75  75 100 CALM        N/A
GREENCASTLE +  PTCLDY    77  72  83 CALM      29.98R
LAFAYETTE      PTCLDY    78  75  90 CALM      29.95R
TERRE HAUTE    PTCLDY    81  76  84 W6        29.96R

$$

INZ030>032-037>040-046>048-054>057-064-065-290300-
CENTRAL INDIANA

CITY           SKY/WX    TMP DP  RH WIND       PRES   REMARKS
COLUMBUS       CLEAR     79  72  78 CALM      29.96R
FISHERS *+     CLEAR     75  75 100 CALM      29.97R
FRANKFORT +    CLEAR    N/A N/A N/A CALM      29.99R
GREENWOOD *+   CLEAR     77  72  83 CALM      29.97R
INDIANAPOLIS   PTCLDY    81  73  76 CALM      29.96R
-EAGLE CREEK   CLEAR     82  73  74 CALM      29.96R
KOKOMO *+      CLEAR     79  72  78 CALM      29.97R
MARION +       PTCLDY    77  73  88 CALM      29.98R
MT COMFORT *+  CLEAR     75 N/A N/A CALM      29.98R
SHELBYVILLE    CLEAR     79  75  87 CALM      29.96R
ZIONSVILLE +   CLEAR     78  73  86 CALM      29.98R

$$

INZ033-034-041-042-049-050-058-059-290300-
EAST CENTRAL INDIANA

CITY           SKY/WX    TMP DP  RH WIND       PRES   REMARKS
MUNCIE         PTCLDY    78  73  84 CALM      29.98R

$$

INZ060-061-067>069-081>083-085>088-290300-
SOUTHWEST INDIANA

CITY           SKY/WX    TMP DP  RH WIND       PRES   REMARKS
EVANSVILLE     CLOUDY    79  73  82 SW10      29.99R
HUNTINGBURG *+ MOCLDY    81  73  78 SE3       29.97R
WASHINGTON +   PTCLDY    77  73  87 CALM      29.95R

$$

INZ062-063-066-070>080-084-089>092-290300-
SOUTH CENTRAL AND SOUTHEAST INDIANA

CITY           SKY/WX    TMP DP  RH WIND       PRES   REMARKS
BLOOMINGTON    PTCLDY    78  76  93 CALM      29.97R
MADISON *+     CLEAR     77  73  88 CALM      29.99R
NORTH VERNON + CLEAR     81  81 100 CALM      29.97R
SEYMOUR +      CLEAR     79  77  94 CALM      29.96R

$$



USA.gov is the U.S. government's official web portal to all federal, state and local government web resources and services.